sat.trackr.live / text

‹ back to catalog

STARLINK-36983

NORAD 68323 · 2026-059C

PAYLOAD ACTIVE UNKNOWN

§ Identity

Operator
Country
US
Launch date
2026-03-22
Launch site
AFETR
Launch vehicle
Mass (kg)
RCS (m²)

Purposes: comms

External: N2YO · Heavens-Above · Gunter

§ Orbital elements

Epoch: 2026-09-20T04:38:09.124224Z

Period
93.85 min
Inclination
53.1565°
Eccentricity
0.0001226
Mean motion
15.34407304 rev/d
Perigee alt
461.8 km
Apogee alt
463.5 km
Semi-major
6,840.8 km
B*
5.7973e-4
RAAN
157.0934°
Arg perigee
63.9596°
Mean anomaly
296.1533°
Rev number
2,805

§ Raw data

STARLINK-369831 68323U 26059C   26263.19316116  .00019266  00000+0  57973-3 0  99982 68323  53.1565 157.0934 0001226  63.9596 296.1533 15.34407304 28052

JSON: /api/v1/satellites/68323 · /tle

For live sub-satellite position, see the globe view (requires WebGL).

§ Visibility from observer

Set your observer location to see the next 7 days of passes ≥ 10°. The values pass through the URL so the page stays shareable.

No JS? Fill the form by hand. The geolocation button needs JavaScript.